Chillum, Maryland
Current Conditions -  °F | °C
As of 5:40 AM on Monday 20 Oct 2014 (Local Time) from KCGS Reporting Station
Clear Clear  
Wind Chill: 37°   Ceiling: Unl
Heat Index: 37°   Visibility: 10mi
Dew Point: 37°   Wind: 0mph
Humidity: 100%   Direction: NA
Pressure: 30.12"   Gusts: NA
Location:  38.9677°N, 76.9584°W
Report Text: KCGS 200940Z AUTO 00000KT 10SM CLR 03/03 A3012 RMK AO1
Loading
Personal Weather Stations






























Interactive Weather Map
Tropical Storm Tracking
New forecast layout! Learn more

10-Day Weather Forecast

Advertisements
Track Severe Weather on mobile